Regional Weather Roundup
Issued by NWS

Home | Current Version | Previous Version | Text Only | Print | Product List | Glossary Off
Versions: 1 2 3 4 5 6 7 8 9 10 11 12 13 14 15 16 17 18 19 20 21 22 23 24 25 26 27 28 29 30 31 32 33 34 35 36 37 38 39 40 41 42 43 44 45 46 47 48 49 50

000
ASUS43 KMKX 231811
RWRWI

WISCONSIN REGIONAL WEATHER ROUNDUP
NATIONAL WEATHER SERVICE MILWAUKEE/SULLIVAN WI
100 PM CDT MON OCT 23 2017

NOTE: "FAIR" INDICATES FEW OR NO CLOUDS BELOW 12,000 FEET WITH NO
SIGNIFICANT WEATHER AND/OR OBSTRUCTIONS TO VISIBILITY.

WIZ001-002-006>008-014>016-023>028-231900-
NORTHWEST WISCONSIN

CITY           SKY/WX    TMP DP  RH WIND       PRES   REMARKS
SUPERIOR ARPT  PTSUNNY   61  44  53 W13       29.69S
6HR MIN TEMP:  51; 6HR MAX TEMP:  62;

ASHLAND        CLOUDY    60  41  49 SW9       29.68F
6HR MIN TEMP:  52; 6HR MAX TEMP:  60;

HAYWARD        PTSUNNY   57  40  52 SW8       29.71F
6HR MIN TEMP:  47; 6HR MAX TEMP:  57;

SIREN          PTSUNNY   60  42  50 W7        29.72F
6HR MIN TEMP:  50; 6HR MAX TEMP:  60;

CUMBERLAND     MOSUNNY   55  39  54 W13G20    29.71F
RICE LAKE      MOSUNNY   59  41  51 W12       29.73F
6HR MIN TEMP:  44; 6HR MAX TEMP:  59;

CHETEK         MOSUNNY   57  43  59 NW6       29.72F
6HR MIN TEMP:  43; 6HR MAX TEMP:  57;

LADYSMITH      CLOUDY    58  42  54 SW8       29.72F
6HR MIN TEMP:  44; 6HR MAX TEMP:  58;

EAU CLAIRE     CLOUDY    57  41  55 W10       29.72F
6HR MIN TEMP:  45; 6HR MAX TEMP:  57;

MENOMONIE      CLOUDY    56  42  59 W10       29.73F
6HR MIN TEMP:  42; 6HR MAX TEMP:  57;

NEW RICHMOND   MOSUNNY   58  39  48 W14       29.74F
6HR MIN TEMP:  46; 6HR MAX TEMP:  60;

OSCEOLA        MOSUNNY   60  40  46 W14G21    29.77F
6HR MIN TEMP:  49; 6HR MAX TEMP:  61;

$$

WIZ003>005-009-010-017-018-231900-
NORTH CENTRAL WISCONSIN

CITY           SKY/WX    TMP DP  RH WIND       PRES   REMARKS
MANITOWISH WTR CLOUDY    53  40  62 S7        29.70F
6HR MIN TEMP:  42; 6HR MAX TEMP:  54;

ARBOR VITAE    MOSUNNY   53  41  64 S8        29.71F
6HR MIN TEMP:  44; 6HR MAX TEMP:  54;

WOODRUFF       MOSUNNY   53  41  64 S8        29.71F
6HR MIN TEMP:  44; 6HR MAX TEMP:  54;

RHINELANDER    CLOUDY    55  39  54 SW8       29.73F
6HR MIN TEMP:  41; 6HR MAX TEMP:  55;

EAGLE RIVER    CLOUDY    55  36  48 S6        29.72
LAND O LAKES   PTSUNNY   57  37  48 S7        29.73F
6HR MIN TEMP:  41; 6HR MAX TEMP:  57;

PHILLIPS       MOSUNNY   54  40  59 SW7       29.69F
6HR MIN TEMP:  43; 6HR MAX TEMP:  54;

TOMAHAWK       CLOUDY    54  40  57 SW5       29.72F
6HR MIN TEMP:  38; 6HR MAX TEMP:  55;

MEDFORD        PTSUNNY   52  39  62 SW5       29.72F
6HR MIN TEMP:  40; 6HR MAX TEMP:  52;

MERRILL        MOSUNNY   54  42  63 SE8       29.73F
6HR MIN TEMP:  34; 6HR MAX TEMP:  54;

$$

WIZ029-030-035-036-043>047-231900-
CENTRAL WISCONSIN

CITY           SKY/WX    TMP DP  RH WIND       PRES   REMARKS
WAUSAU         CLOUDY    53  42  66 S8        29.74F
6HR MIN TEMP:  39; 6HR MAX TEMP:  53;

MOSINEE        PTSUNNY   52  45  76 S8        29.76F
MARSHFIELD     PTSUNNY   55  40  56 SW8       29.73F
6HR MIN TEMP:  40; 6HR MAX TEMP:  55;

STEVENS POINT  CLOUDY    53  39  59 S9        29.76S
6HR MIN TEMP:  36; 6HR MAX TEMP:  53;

WAUPACA        CLOUDY    51  50  97 SE3       29.78F
6HR MIN TEMP:  40; 6HR MAX TEMP:  51;

WAUTOMA        CLOUDY   N/A N/A N/A SE7       29.78F
WISC RAPIDS    MOSUNNY   54  45  71 SW8       29.77F
6HR MIN TEMP:  38; 6HR MAX TEMP:  54;

CAMP DOUGLAS   PTSUNNY   57  45  62 SE8       29.75S
$$

WIZ011>013-019>022-031-037>040-048>050-231900-
NORTHEAST WISCONSIN

CITY           SKY/WX    TMP DP  RH WIND       PRES   REMARKS
ANTIGO         CLOUDY    50  39  65 S10       29.76S
6HR MIN TEMP:  37; 6HR MAX TEMP:  50;

SHAWANO        CLOUDY    49  48  97 CALM      29.78F
6HR MIN TEMP:  41; 6HR MAX TEMP:  49;

OCONTO         CLOUDY    49  46  90 CALM      29.78F
6HR MIN TEMP:  40; 6HR MAX TEMP:  49;

STURGEON BAY   MOSUNNY   53  43  68 W3        29.80F
6HR MIN TEMP:  41; 6HR MAX TEMP:  53; 6HR PCP:  0.01;

GREEN BAY      CLOUDY    51  48  89 SE5       29.79F
6HR MIN TEMP:  43; 6HR MAX TEMP:  51;

MANITOWOC      CLOUDY    53  43  68 NW5       29.80F
6HR MIN TEMP:  43; 6HR MAX TEMP:  53;

APPLETON       PTSUNNY   52  43  71 SE5       29.77F
CLINTONVILLE   NOT AVBL
OSHKOSH        CLOUDY    53  45  74 SE7       29.78F
6HR MIN TEMP:  39; 6HR MAX TEMP:  53;

$$

WIZ032>034-041-042-053>061-231900-
SOUTHWEST WISCONSIN

CITY           SKY/WX    TMP DP  RH WIND       PRES   REMARKS
LA CROSSE      CLOUDY    59  43  55 NW7       29.76S
6HR MIN TEMP:  48; 6HR MAX TEMP:  59;

SPARTA         MOSUNNY   55  42  63 S5        29.75F
6HR MIN TEMP:  37; 6HR MAX TEMP:  56;

VIROQUA        CLOUDY    55  42  63 SW6       29.76F
6HR MIN TEMP:  42; 6HR MAX TEMP:  55;

BOSCOBEL       MOSUNNY   57  47  69 W8        29.78F
6HR MIN TEMP:  41; 6HR MAX TEMP:  57;

PRAIRIE DU CHI CLOUDY    57  41  55 SW5       29.78F
6HR MIN TEMP:  38; 6HR MAX TEMP:  57;

PLATTEVILLE    CLOUDY    57  48  73 SW9       29.80F
6HR MIN TEMP:  40; 6HR MAX TEMP:  57;

$$

WIZ056-057-062-063-064-067-068-231900-
SOUTH CENTRAL WISCONSIN

CITY           SKY/WX    TMP DP  RH WIND       PRES   REMARKS
REEDSBURG      CLOUDY    55  44  67 SW7       29.77F
6HR MIN TEMP:  37; 6HR MAX TEMP:  55;

BARABOO/DELLS  CLOUDY    55  40  57 S7        29.77F
6HR MIN TEMP:  38; 6HR MAX TEMP:  55;

LONE ROCK      MOSUNNY   56  50  80 CALM      29.78F
6HR MIN TEMP:  40; 6HR MAX TEMP:  56;

MINERAL POINT  CLOUDY    57  50  77 S6        29.79F
MADISON        CLOUDY    55  42  61 S6        29.78F
6HR MIN TEMP:  41; 6HR MAX TEMP:  55;

MIDDLETON      CLOUDY    57  39  50 S6        29.79F
6HR MIN TEMP:  40; 6HR MAX TEMP:  57;

WATERTOWN      PTSUNNY   51  45  79 CALM      29.79F
6HR MIN TEMP:  41; 6HR MAX TEMP:  51;

MONROE         CLOUDY    54  43  66 S3        29.78F
JANESVILLE     CLOUDY    54  45  71 CALM      29.80F
$$

WIZ051-052-058>065-066-070>072-231900-
SOUTHEAST WISCONSIN

CITY           SKY/WX    TMP DP  RH WIND       PRES   REMARKS
MILWAUKEE      CLOUDY    54  50  86 NW6       29.79F
6HR MIN TEMP:  50; 6HR MAX TEMP:  54; 6HR PCP:  0.01;

WAUKESHA       SUNNY     50  45  81 W6        29.81F
MILWAUKEE/TIMM MOSUNNY   52  46  82 CALM      29.80F
RACINE         CLOUDY    52  51  97 NW5       29.79F
6HR MIN TEMP:  50; 6HR MAX TEMP:  53; 6HR PCP:  0.02;

BURLINGTON     CLOUDY    50  50  98 W3        29.78F
6HR MIN TEMP:  47; 6HR MAX TEMP:  50;

KENOSHA        CLOUDY    52  48  86 NW7       29.78F
6HR MIN TEMP:  50; 6HR MAX TEMP:  52; 6HR PCP:  0.02;

FOND DU LAC    CLOUDY    53  44  71 S3        29.79F
6HR MIN TEMP:  43; 6HR MAX TEMP:  53;

SHEBOYGAN      CLOUDY    53  48  83 W3        29.79F
6HR MIN TEMP:  44; 6HR MAX TEMP:  53; 6HR PCP: TRACE;

WEST BEND      PTSUNNY   50  45  81 CALM      29.79F
JUNEAU         PTSUNNY   51  41  70 CALM      29.80F
6HR MIN TEMP:  41; 6HR MAX TEMP:  51;

$$

LSZ147-162-231900-
LAKE SUPERIOR

STATION/POSITION TIME  TEMP    WIND        PRES    WAVE
                       AIR SEA DIR/SP/G            HT/PER
                 (UTC) (F)     (DEG/KT/KT) (MB)    (FT/S)
W MID LAKE BUOY  1650   53 51              1005.5F   3/ 5
DEVILS ISLAND    1800   56     240/ 12/ 14 1005.0F
SAXON HARBOR     1740   59     230/  7/ 11 1005.1F
$$

LMZ867-665-643>646-231900-
LAKE MICHIGAN

STATION/POSITION TIME  TEMP    WIND        PRES    WAVE
                       AIR SEA DIR/SP/G            HT/PER
                 (UTC) (F)     (DEG/KT/KT) (MB)    (FT/S)
S GREEN BAY BUOY 1800   51 58  260/  2/  4 1008.8
N MID LAKE BUOY  1750   53 57   90/  2/  4 1009.2F   0
N



USA.gov is the U.S. government's official web portal to all federal, state and local government web resources and services.